Theta_e
327 332 336 341 344 346 347 347 348 347 348 348 348 348 348 348 348 348 348 347 346 346 346 348 349 349 349 347 346 346 345 346 346 346 346 350 352 352 352 354 353 349 353
327 330 332 336 340 341 343 344 345 345 344 344 344 344 343 344 345 344 344 344 345 345 345 345 347 347 347 347 346 346 346 347 347 346 345 344 350 353 351 353 353 350 353
323 326 328 331 334 336 338 339 339 339 340 341 341 341 341 341 341 341 341 341 342 344 345 345 345 346 346 346 345 345 345 347 348 345 343 337 345 352 352 353 353 353 352
321 323 323 327 330 332 334 333 334 334 336 336 336 336 337 336 335 335 336 336 336 339 341 343 344 343 343 343 343 343 344 344 346 344 341 332 340 352 350 351 352 353 354
318 320 320 324 325 328 329 328 328 329 329 330 332 331 328 327 328 330 330 330 331 332 333 335 336 338 338 339 340 342 342 343 343 338 341 340 337 345 351 351 352 351 350
315 317 318 321 322 323 323 323 322 323 323 324 326 322 321 320 320 321 322 323 324 326 328 329 332 333 332 334 337 337 337 338 338 337 337 340 340 346 347 351 352 350 348
311 313 315 317 318 319 320 319 319 319 318 319 319 317 316 316 316 317 317 318 319 320 321 324 327 326 326 326 328 330 328 327 333 335 336 339 341 345 344 345 349 351 351
309 310 311 313 314 315 315 316 316 316 315 314 313 313 312 312 313 313 314 315 316 316 317 319 319 318 318 319 321 320 320 320 325 331 335 338 340 343 342 344 346 349 351
305 306 306 309 309 311 311 312 312 312 311 310 309 308 308 307 308 308 308 311 312 313 313 314 314 315 315 314 313 314 314 315 318 330 332 335 339 340 341 342 343 345 349
303 303 304 304 305 307 307 307 308 307 307 306 304 303 302 305 304 304 304 307 309 309 310 311 311 312 311 311 310 310 312 313 322 325 328 333 337 338 340 341 341 342 344
301 302 303 303 303 304 304 303 303 303 302 302 303 301 306 302 302 302 302 303 305 306 307 308 309 309 308 311 312 312 313 309 309 313 320 329 332 335 336 337 339 341 343
300 301 302 302 302 302 299 303 303 302 302 303 303 302 302 302 300 301 303 302 303 302 304 305 306 306 307 305 305 309 306 306 306 308 310 323 323 328 333 334 336 339 341
302 301 301 301 302 302 301 302 302 303 302 302 302 301 302 301 301 301 301 301 301 302 300 300 301 301 302 303 304 304 304 305 305 306 308 315 313 317 322 327 331 334 338
302 301 300 301 301 302 302 302 302 301 301 301 300 300 300 300 299 299 299 299 300 299 299 299 299 300 300 301 302 302 302 303 304 305 307 311 311 312 315 318 323 331 333
301 300 299 300 300 300 301 301 301 300 300 300 299 298 298 298 297 297 297 297 297 296 296 296 297 297 298 298 299 299 299 301 302 303 305 308 310 310 313 316 318 322 330
302 300 299 299 300 300 299 300 300 299 299 299 298 297 297 297 296 295 296 295 295 295 295 295 294 294 295 297 296 297 297 298 300 301 303 304 309 309 310 313 315 317 320
302 300 299 298 299 298 299 299 299 299 297 297 297 296 295 295 294 294 294 294 294 294 294 294 294 294 294 294 294 296 297 298 298 298 300 302 304 307 309 310 311 314 316
302 300 299 297 297 298 298 298 298 297 297 297 296 295 294 293 293 293 293 293 293 292 292 292 292 292 292 292 293 295 295 296 296 297 298 300 301 302 305 306 308 310 312
301 299 298 297 296 297 298 297 297 297 296 296 295 295 294 292 292 291 291 291 292 291 291 291 291 291 290 291 292 292 292 293 295 296 298 299 300 301 302 305 308 308 308
301 300 298 296 296 297 297 297 296 295 295 295 294 294 292 291 291 291 291 290 291 290 290 290 289 290 289 290 289 289 292 294 295 296 297 298 301 302 303 304 305 306 309
301 298 296 295 296 296 296 294 294 293 294 294 294 292 291 290 290 290 289 289 289 289 289 289 288 288 289 289 288 289 289 292 294 297 299 299 295 296 300 303 303 304 307
299 297 296 296 296 295 296 296 295 295 295 294 294 292 291 290 289 288 288 288 288 288 288 288 288 286 287 288 285 285 285 288 295 292 292 293 296 295 296 299 300 301 302
298 297 296 296 296 295 296 295 293 292 291 290 291 291 290 289 289 288 288 287 287 287 286 287 287 286 284 286 287 283 282 282 283 290 289 290 293 293 293 293 295 296 297
298 298 296 296 295 296 295 293 291 289 289 290 292 291 289 289 288 288 287 286 286 287 286 286 286 285 285 283 285 286 286 284 280 279 287 288 289 290 292 292 292 295 296
298 297 296 295 295 295 295 292 291 290 291 292 290 288 288 288 288 287 287 286 285 286 286 285 285 285 285 283 283 284 283 284 284 281 278 282 286 288 289 290 290 291 294
298 296 295 294 293 295 293 292 291 290 290 289 288 287 287 287 287 287 286 285 285 284 284 284 284 284 283 283 283 283 282 281 281 281 281 281 281 283 285 287 287 288 289
Wind_Speed
6 8 10 11 12 14 13 13 12 12 11 12 14 14 12 12 12 12 11 9 7 8 9 10 11 10 9 9 10 10 11 11 10 11 11 11 10 10 10 7 6 9 7
6 8 10 9 12 11 13 13 13 14 13 12 12 12 11 11 13 12 12 11 10 8 8 8 9 10 10 9 8 9 10 9 8 8 9 11 11 12 9 6 5 9 7
7 6 10 10 9 10 12 13 14 13 11 12 12 13 12 12 12 13 13 14 13 12 11 10 10 11 10 9 8 8 9 10 8 9 12 8 8 5 7 2 7 8 9
6 8 9 8 10 10 11 12 12 12 13 14 14 12 13 14 15 14 14 15 15 15 15 16 16 15 14 12 10 10 10 10 9 10 9 7 8 1 4 2 6 8 8
7 7 8 9 10 11 11 12 12 13 14 14 13 15 14 13 14 14 15 15 15 15 15 14 14 15 16 14 14 13 13 11 9 11 9 5 6 10 7 4 8 8 8
7 9 9 9 10 11 11 12 13 13 13 13 14 13 13 13 13 13 13 13 14 14 15 15 16 15 14 15 15 14 15 16 16 9 7 9 6 5 9 10 8 9 8
8 9 9 9 9 10 11 11 12 13 13 12 12 12 12 13 13 13 14 14 15 15 15 14 15 16 17 17 16 15 15 16 11 10 9 7 7 8 10 13 13 10 9
9 8 8 9 9 10 10 10 11 12 12 12 12 12 13 13 13 14 15 15 15 15 15 14 14 14 15 16 16 16 16 15 11 12 9 7 8 8 10 11 13 13 11
8 7 7 7 9 10 10 10 11 11 12 12 12 11 11 12 12 13 12 13 13 14 14 14 15 15 15 15 13 14 17 18 12 9 9 6 5 8 12 14 14 14 14
8 7 7 7 5 7 8 9 10 11 11 11 10 7 3 8 8 10 12 13 13 14 13 15 14 15 15 13 12 12 15 18 10 10 8 7 10 11 13 17 17 15 14
9 9 8 8 7 7 7 8 9 8 7 5 6 3 2 5 7 8 11 12 14 16 14 16 16 17 16 11 11 12 13 6 9 7 7 8 13 13 15 18 18 18 16
13 12 9 9 8 7 5 6 4 4 4 3 4 5 4 6 6 6 6 9 11 13 12 15 14 14 12 9 8 10 6 9 7 7 6 11 16 17 18 19 19 19 19
15 11 12 10 9 9 6 5 3 2 2 3 5 4 4 4 5 5 4 5 6 9 7 10 10 8 11 8 8 9 10 9 6 6 9 13 18 20 20 22 22 21 21
17 15 13 12 10 9 6 5 4 3 3 2 3 4 3 3 4 4 4 6 6 6 8 7 5 8 10 11 10 11 11 9 7 6 8 12 15 20 22 24 24 24 23
18 16 15 13 11 9 8 5 5 4 3 3 3 4 3 3 4 4 5 5 5 6 7 8 7 8 9 10 10 11 11 11 11 7 6 13 16 21 22 23 24 25 26
17 17 15 15 13 11 9 9 6 5 5 4 3 3 4 3 3 3 4 4 5 6 7 7 7 8 7 8 9 10 11 11 11 12 8 10 17 19 21 23 23 25 26
16 17 17 16 14 12 11 9 7 6 5 4 3 3 3 3 3 3 3 4 5 6 7 7 7 7 7 7 9 9 9 10 10 12 11 9 11 14 17 20 22 23 25
18 19 17 13 14 13 11 9 6 6 5 4 3 3 3 2 3 3 4 5 5 6 6 6 7 7 7 8 8 8 8 10 12 13 11 10 9 9 11 18 21 21 24
20 19 17 16 16 14 11 9 8 7 5 4 4 3 4 3 3 3 3 3 5 5 6 6 7 8 8 8 9 9 9 10 11 10 12 11 12 10 8 13 16 16 21
19 18 18 15 15 13 8 7 6 6 5 5 4 3 4 2 1 2 2 4 4 5 6 6 8 7 9 9 11 12 11 11 11 10 9 9 8 10 10 10 8 8 15
18 18 18 17 16 12 8 8 6 7 6 6 5 5 5 3 1 2 3 4 5 6 7 8 8 9 8 9 9 8 11 13 12 6 5 6 11 12 12 10 8 8 8
18 18 19 18 17 14 9 8 5 7 6 6 5 5 5 4 4 4 5 6 6 6 8 8 7 7 7 5 6 10 8 8 4 10 10 9 8 10 11 12 12 13 12
20 20 18 18 17 16 13 9 6 4 3 5 6 5 6 5 5 6 8 6 6 6 7 7 7 8 7 7 5 3 6 6 14 6 13 12 8 9 10 14 15 16 16
19 18 19 19 18 16 16 13 14 9 7 6 5 5 5 6 7 8 7 6 6 6 8 7 5 7 7 8 6 4 8 9 6 15 4 9 12 12 11 12 14 16 17
18 18 18 19 18 16 16 14 12 10 7 5 5 6 7 7 8 7 6 6 6 6 8 8 8 8 7 7 7 6 8 8 10 9 18 12 11 10 12 12 15 14 17
16 17 18 19 19 17 17 16 15 13 10 7 7 6 6 6 4 5 6 6 6 8 9 8 8 10 9 9 8 8 8 8 7 9 11 21 20 12 12 12 14 14 15
Wind_Direction
75 59 23 31 43 49 55 68 74 78 79 73 66 62 61 56 53 49 45 40 27 16 13 10 13 19 19 18 8 2 356 348 348 344 340 332 311 296 294 305 293 276 235
89 75 46 34 46 51 53 55 62 66 68 69 65 59 59 58 55 50 43 36 28 19 12 7 6 10 19 16 7 357 347 345 340 339 332 307 266 251 257 297 288 286 327
89 71 72 44 54 54 55 55 54 53 55 57 57 52 50 46 40 35 29 26 21 17 15 10 8 8 14 10 3 359 353 347 337 336 312 282 278 231 206 276 293 271 281
86 72 62 55 65 68 69 64 60 58 57 56 52 49 47 44 37 34 28 29 23 19 15 12 12 10 6 0 354 352 351 351 352 329 302 320 313 7 157 290 288 287 272
101 95 84 72 75 79 80 75 70 65 62 59 61 58 53 49 45 42 38 31 25 20 14 7 1 7 7 359 355 353 350 343 343 305 302 305 323 304 351 321 295 283 256
124 110 92 84 84 85 84 82 78 75 75 73 73 63 58 51 47 40 36 30 22 18 11 7 6 5 357 356 1 357 357 348 328 313 313 314 301 330 344 324 305 295 289
132 116 101 90 89 88 86 85 81 77 73 73 71 68 62 52 46 38 33 28 23 18 11 9 11 3 357 357 355 351 353 345 333 309 296 286 302 23 338 316 310 295 283
138 129 120 95 91 90 87 88 85 82 80 76 71 66 62 57 51 44 35 29 25 18 11 10 4 358 352 350 348 347 343 339 323 309 300 300 306 318 309 308 307 305 282
146 150 141 128 108 87 80 84 85 82 76 70 64 64 64 55 51 44 42 29 26 17 13 6 0 354 348 344 343 341 336 322 305 290 292 294 358 340 312 308 306 305 300
164 160 155 153 150 127 109 90 90 88 84 76 71 67 63 85 54 56 32 26 24 15 11 4 358 351 347 334 337 342 325 307 295 329 307 308 12 343 316 305 302 300 301
184 179 173 169 156 138 127 118 117 109 106 113 119 68 129 59 39 40 40 19 16 11 6 1 359 352 347 345 336 342 304 339 335 309 302 318 343 322 304 300 301 298 297
191 188 181 175 168 160 151 151 136 134 96 89 65 51 41 43 42 17 40 21 14 10 4 358 358 350 355 347 342 337 342 334 312 309 304 337 335 312 297 295 295 296 294
193 189 186 180 173 172 159 170 171 162 153 105 67 45 47 45 27 28 18 14 3 15 6 358 355 360 347 342 338 333 330 329 322 313 311 327 316 305 299 297 288 284 289
196 190 187 180 179 178 169 189 171 166 162 137 88 49 55 47 36 24 22 11 5 4 356 352 348 344 342 334 334 330 327 325 320 312 302 313 315 303 297 295 293 290 279
199 193 189 182 181 176 186 178 177 159 178 138 132 77 45 56 35 23 18 8 1 356 354 346 341 339 336 334 329 325 321 314 311 305 303 302 296 295 294 291 290 288 287
197 196 187 188 185 178 187 183 176 175 161 172 137 100 72 47 39 25 13 1 357 355 347 331 332 330 326 319 317 317 310 309 304 300 295 293 292 289 290 290 291 289 285
198 193 192 187 183 182 185 183 179 177 179 167 151 149 114 71 49 12 10 355 3 343 325 325 326 323 313 312 308 307 300 297 289 288 286 284 290 288 287 291 291 290 289
196 195 188 188 184 184 184 182 182 174 185 171 174 172 147 94 39 12 4 360 356 323 322 322 321 321 317 316 309 301 297 292 286 281 280 280 281 288 291 291 289 292 291
197 193 188 188 187 185 184 182 180 176 192 182 191 194 135 71 37 5 0 334 321 312 310 311 318 317 314 311 300 300 290 279 267 270 273 266 269 276 281 283 280 280 282
195 192 189 187 188 182 175 182 183 180 191 189 204 183 150 144 56 343 314 307 304 305 302 306 298 304 304 312 312 303 284 280 276 259 263 270 268 270 268 271 277 277 272
193 192 191 188 188 180 178 182 188 196 192 198 193 179 178 152 188 263 279 282 279 274 283 291 297 309 315 324 313 310 284 267 256 249 298 325 302 281 295 290 287 287 284
191 193 193 194 190 189 183 187 191 191 197 194 176 179 182 186 205 240 254 255 258 278 281 284 301 309 312 322 325 299 326 306 17 334 296 287 304 308 301 301 312 303 294
197 195 196 194 193 190 188 181 177 152 173 193 195 193 187 195 218 228 241 257 279 279 284 295 296 307 300 311 315 297 318 313 334 249 318 289 304 319 310 298 297 296 292
198 194 195 195 195 192 187 183 189 196 192 196 185 169 177 212 230 239 252 266 270 275 279 287 297 293 296 296 304 248 249 274 309 311 228 310 294 293 305 303 298 298 298
192 195 193 196 196 190 187 190 193 203 197 160 167 191 215 221 228 243 259 273 279 278 277 280 280 273 276 276 270 272 268 263 259 260 296 297 290 289 288 295 295 289 294
187 193 193 194 194 191 191 195 198 195 189 183 187 205 216 220 233 242 248 255 266 272 272 280 279 273 270 271 272 269 262 266 269 276 282 293 295 287 284 283 287 284 279